This demonstration page uses our WeatherBlox Daily Observations layout. Learn more.

Left ArrowRight Arrow

Hourly Observations for December 4, 2019

Temp ( °F °C ) Dew Point ( °F °C ) Humidity (%) Winds ( mph kmh ) Pressure ( in mb ) Visibility ( mi km ) Precip ( " mm )
12:52 am 00:52 Clear 36 2.2 29 -1.7 76 76 NW 10 17 29.90 1013 10 16 0.00 0.00
1:52 am 01:52 Clear 37 2.8 29 -1.7 73 73 W 10 17 29.91 1013 10 16 0.00 0.00
2:52 am 02:52 Clear 35 1.7 28 -2.2 76 76 NW 6 9 29.91 1013 10 16 0.00 0.00
3:52 am 03:52 Clear 36 2.2 28 -2.2 73 73 Calm 29.91 1013 10 16 0.00 0.00
4:52 am 04:52 Clear 33 0.6 27 -2.8 78 78 WSW 3 6 29.91 1013 10 16 0.00 0.00
5:52 am 05:52 Clear 30 -1.1 26 -3.3 85 85 Calm 29.92 1013 10 16 0.00 0.00
6:52 am 06:52 Clear 32 0 27 -2.8 82 82 Calm 29.94 1014 10 16 0.00 0.00
7:52 am 07:52 Sunny 32 0 27 -2.8 82 82 Calm 29.94 1014 10 16 0.00 0.00
8:52 am 08:52 Mostly Sunny 37 2.8 30 -1.1 76 76 NW 6 9 29.96 1015 10 16 0.00 0.00
9:52 am 09:52 Sunny 43 6.1 31 -0.6 63 63 WNW 5 7 29.96 1015 10 16 0.00 0.00
10:52 am 10:52 Mostly Sunny 45 7.2 31 -0.6 58 58 NNE 5 7 29.98 1015 10 16 0.00 0.00
11:52 am 11:52 Mostly Sunny 48 8.9 33 0.6 56 56 N 6 9 29.96 1015 10 16 0.00 0.00
12:52 pm 12:52 Mostly Sunny 50 10 34 1.1 54 54 VRB 3 6 29.96 1015 10 16 0.00 0.00
1:52 pm 13:52 Mostly Sunny 53 11.7 34 1.1 48 48 NW 9 15 29.95 1014 10 16 0.00 0.00
2:52 pm 14:52 Mostly Sunny 53 11.7 35 1.7 51 51 NW 8 13 29.93 1014 10 16 0.00 0.00
3:52 pm 15:52 Mostly Sunny 52 11.1 34 1.1 50 50 WNW 7 11 29.94 1014 10 16 0.00 0.00
4:52 pm 16:52 Partly Cloudy 48 8.9 34 1.1 58 58 Calm 29.94 1014 10 16 0.00 0.00
5:52 pm 17:52 Mostly Clear 44 6.7 34 1.1 68 68 Calm 29.94 1014 10 16 0.00 0.00
6:52 pm 18:52 Clear 40 4.4 32 0 73 73 Calm 29.96 1014 10 16 0.00 0.00
7:52 pm 19:52 Clear 38 3.3 32 0 79 79 SSE 3 6 29.97 1015 10 16 0.00 0.00
8:52 pm 20:52 Clear 37 2.8 32 0 82 82 SE 3 6 29.95 1014 10 16 0.00 0.00
9:52 pm 21:52 Clear 34 1.1 31 -0.6 89 89 Calm 29.95 1014 10 16 0.00 0.00
10:52 pm 22:52 Clear 32 0 30 -1.1 92 92 S 3 6 29.95 1014 10 16 0.00 0.00
11:52 pm 23:52 Clear 33 0.6 30 -1.1 89 89 Calm 29.95 1014 10 16 0.00 0.00

Powered by AerisWeather